Volver al catálogo

STARLINK-34707

ActivoComunicacionesSSO
NORAD 65176·PAYLOAD·🇺🇸 United States

Lanzado Aug 14, 2025 desde Vandenberg Space Force Base

Loading…

Próximos Pases (próximas 24 horas)

TLE

ActualizadoSource: CelesTrak SupGP

Época: Sep 14, 2026, 14:42 UTC

1 65176C 25175C   26257.61298611  .00043232  00000+0  13424-2 0  2577
2 65176  97.2843 126.6299 0002288  79.0586  65.5384 15.33407499    17

Sigue STARLINK-34707 en tiempo real con AllMySat

Download on the App Store